Ashland, VA

10:02 AM EST on February 19, 2017 (GMT -0500)
Hanover County Municipal

Weather History for KOFP - March, 2013

Change the Weather History Date:

Wednesday, March 6, 2013

  Actual Average Record
Temperature  
Mean Temperature 36 °F -  
Max Temperature 39 °F 57 °F 82 °F (1961)
Min Temperature 32 °F 34 °F 10 °F (1960)
Degree Days  
Heating Degree Days 30    
Moisture  
Dew Point 34 °F    
Average Humidity 98    
Maximum Humidity 100    
Minimum Humidity 93    
Precipitation  
Precipitation 2.11 in - - ()
Sea Level Pressure  
Sea Level Pressure 29.58 in    
Wind  
Wind Speed 10 mph (NNW)    
Max Wind Speed 17 mph    
Max Gust Speed 39 mph    
Visibility 3 miles    
Events Fog , Rain , Snow , Thunderstorm    
Averages and records for this station are not official NWS values.
T = Trace of Precipitation, MM = Missing Value Source: NWS Daily Summary

Daily Weather History Graph

Daily Weather History Graph

Search for Another Location

Airport or City:

Trip Planner

Search our weather history database for the weather conditions in past years. The results will help you decide how hot, cold, wet, or windy it might be!

Date:

Astronomy

Mar. 06, 2013 Rise Set
Actual Time 6:33 AM EST 6:08 PM EST
Civil Twilight 6:07 AM EST 6:34 PM EST
Nautical Twilight 5:37 AM EST 7:05 PM EST
Astronomical Twilight 5:06 AM EST 7:35 PM EST
Moon 2:36 AM EST (3/6) 12:52 PM EST (3/6)
Length of Visible Light 12h 27m
Length of Day
11h 34m
Waning Crescent, 30% of the Moon is Illuminated
Mar 6
Waning Crescent
Mar 11
New
Mar 19
First Quarter
Mar 27
Full
Apr 3
Last Quarter

Hourly Weather History & Observations

Time (EST) Temp. Windchill Dew Point Humidity Pressure Visibility Wind Dir Wind Speed Gust Speed Precip Events Conditions
12:54 AM 35.1 °F 27.9 °F 34.0 °F 96% 29.68 in 4.0 mi ENE 9.2 mph - 0.13 in Rain Rain
1:54 AM 36.0 °F 29.6 °F 35.1 °F 97% 29.64 in 4.0 mi ENE 8.1 mph - 0.10 in Rain Light Rain
2:54 AM 36.0 °F 31.1 °F 36.0 °F 100% 29.58 in 4.0 mi Variable 5.8 mph - 0.04 in Rain Light Rain
3:07 AM 35.6 °F 29.2 °F 35.6 °F 100% 29.57 in 2.5 mi ENE 8.1 mph - 0.01 in Rain Light Rain
3:15 AM 35.6 °F 28.6 °F 35.6 °F 100% 29.56 in 3.0 mi ENE 9.2 mph - 0.01 in   Overcast
3:54 AM 37.0 °F 33.3 °F 36.0 °F 96% 29.53 in 7.0 mi Variable 4.6 mph - 0.03 in   Overcast
4:54 AM 37.9 °F 33.5 °F 37.0 °F 97% 29.49 in 8.0 mi Variable 5.8 mph - 0.06 in Rain Light Rain
5:54 AM 39.0 °F 33.4 °F 39.0 °F 100% 29.44 in 5.0 mi NNE 8.1 mph 18.4 mph 0.04 in Rain Light Rain
6:45 AM 35.6 °F 26.2 °F 35.6 °F 100% 29.46 in 3.0 mi West 15.0 mph - 0.11 in Rain Rain
6:50 AM 35.6 °F 26.2 °F 35.6 °F 100% 29.46 in 2.5 mi WNW 15.0 mph - 0.14 in Rain , Thunderstorm Heavy Thunderstorms and Rain
6:54 AM 35.1 °F 25.5 °F 35.1 °F 100% 29.46 in 2.5 mi WNW 15.0 mph - 0.20 in Rain , Thunderstorm Heavy Thunderstorms and Rain
7:02 AM 35.6 °F 25.9 °F 35.6 °F 100% 29.46 in 2.5 mi WNW 16.1 mph - 0.08 in Rain Heavy Rain
7:11 AM 33.8 °F 23.5 °F 33.8 °F 100% 29.46 in 3.0 mi WNW 16.1 mph - 0.17 in Rain Heavy Rain
7:25 AM 33.8 °F 27.0 °F 33.8 °F 100% 29.46 in 2.5 mi NW 8.1 mph 17.3 mph 0.29 in Rain Heavy Rain
7:35 AM 33.8 °F 27.0 °F 33.8 °F 100% 29.46 in 3.0 mi NW 8.1 mph - 0.33 in Rain Rain
7:43 AM 33.8 °F 27.7 °F 33.8 °F 100% 29.45 in 1.8 mi Variable 6.9 mph - 0.38 in Rain Heavy Rain
7:54 AM 34.0 °F 27.2 °F 34.0 °F 100% 29.46 in 3.0 mi NNW 8.1 mph - 0.44 in Rain Rain
8:07 AM 33.8 °F 27.0 °F 33.8 °F 100% 29.45 in 2.5 mi NNW 8.1 mph 17.3 mph 0.04 in Rain Rain
8:21 AM 33.8 °F 27.7 °F 33.8 °F 100% 29.45 in 3.0 mi NNW 6.9 mph - 0.08 in Rain Light Rain
8:44 AM 33.8 °F 27.0 °F 33.8 °F 100% 29.45 in 1.8 mi NNW 8.1 mph - 0.09 in Snow Light Snow
8:54 AM 33.1 °F 26.9 °F 33.1 °F 100% 29.45 in 1.2 mi Variable 6.9 mph 18.4 mph 0.11 in Snow Light Snow
9:02 AM 33.8 °F 27.7 °F 33.8 °F 100% 29.45 in 1.5 mi Variable 6.9 mph - 0.02 in Snow Light Snow
9:10 AM 33.8 °F 27.0 °F 33.8 °F 100% 29.45 in 1.2 mi NNW 8.1 mph 18.4 mph 0.02 in Snow Light Snow
9:21 AM 33.8 °F 26.4 °F 33.8 °F 100% 29.45 in 2.0 mi NNW 9.2 mph 18.4 mph 0.03 in Snow Light Snow
9:38 AM 33.8 °F 25.3 °F 32.0 °F 93% 29.45 in 1.5 mi North 11.5 mph 19.6 mph 0.03 in Snow Light Snow
9:46 AM 33.8 °F 25.3 °F 32.0 °F 93% 29.45 in 0.8 mi North 11.5 mph 19.6 mph 0.04 in Snow Light Snow
9:54 AM 33.1 °F 24.9 °F 32.0 °F 96% 29.46 in 0.5 mi North 10.4 mph 23.0 mph 0.06 in Fog , Snow Snow
10:25 AM 32.0 °F 21.6 °F 32.0 °F 100% 29.44 in 0.2 mi NNW 15.0 mph 26.5 mph 0.10 in Fog , Snow Heavy Snow
11:09 AM 33.8 °F 24.3 °F 32.0 °F 93% 29.46 in 0.2 mi North 13.8 mph 27.6 mph 0.33 in Fog , Snow Heavy Snow
11:23 AM 33.8 °F 23.9 °F 32.0 °F 93% 29.47 in 0.2 mi North 15.0 mph 24.2 mph 0.37 in Fog , Snow , Thunderstorm Snow
11:30 AM 33.8 °F 23.9 °F 32.0 °F 93% 29.47 in 0.2 mi North 15.0 mph 26.5 mph 0.40 in Fog , Snow , Thunderstorm Snow
11:38 AM 33.8 °F 24.8 °F 32.0 °F 93% 29.48 in 0.5 mi North 12.7 mph 28.8 mph 0.41 in Fog , Snow Light Snow
11:49 AM 33.8 °F 24.8 °F 33.8 °F 100% 29.49 in 1.0 mi North 12.7 mph 24.2 mph 0.43 in Snow Light Snow
11:54 AM 34.0 °F 24.6 °F 33.1 °F 96% 29.49 in 1.0 mi North 13.8 mph 24.2 mph 0.44 in Snow Light Snow
12:33 PM 33.8 °F 23.2 °F 33.8 °F 100% 29.50 in 2.0 mi NNW 17.3 mph 28.8 mph 0.06 in Snow Light Snow
12:42 PM 33.8 °F 24.8 °F 33.8 °F 100% 29.51 in 4.0 mi NNW 12.7 mph 29.9 mph 0.06 in   Overcast
12:54 PM 34.0 °F 23.4 °F 33.1 °F 96% 29.52 in 2.0 mi North 17.3 mph 26.5 mph 0.09 in Snow Light Snow
1:03 PM 33.8 °F 25.3 °F - N/A% 29.52 in 2.5 mi NNW 11.5 mph 26.5 mph 0.00 in Snow Light Snow
1:08 PM 33.8 °F 25.3 °F - N/A% 29.53 in 3.0 mi NNW 11.5 mph 29.9 mph 0.02 in   Overcast
1:20 PM 33.8 °F 25.3 °F - N/A% 29.53 in 1.8 mi NNW 11.5 mph 25.3 mph 0.03 in Snow Light Snow
1:29 PM 33.8 °F 23.5 °F - N/A% 29.53 in 1.2 mi NNW 16.1 mph 26.5 mph 0.04 in Snow Light Snow
1:50 PM 33.8 °F 23.9 °F - N/A% 29.54 in 0.8 mi NNW 15.0 mph 27.6 mph 0.09 in Snow Light Snow
1:54 PM 33.1 °F 23.0 °F - N/A% 29.55 in 0.8 mi NNW 15.0 mph 27.6 mph 0.10 in Snow Light Snow
2:11 PM 33.8 °F 24.3 °F - N/A% 29.56 in 1.0 mi NNW 13.8 mph 32.2 mph 0.04 in Snow Light Snow
2:22 PM 33.8 °F 24.8 °F - N/A% 29.57 in 0.8 mi NNW 12.7 mph 32.2 mph 0.08 in Snow Light Snow
2:40 PM 33.8 °F 23.5 °F - N/A% 29.59 in 1.0 mi NNW 16.1 mph 32.2 mph 0.12 in Snow Light Snow
2:48 PM 33.8 °F 23.9 °F - N/A% 29.60 in 2.0 mi NNW 15.0 mph 32.2 mph 0.12 in Snow Light Snow
2:54 PM 34.0 °F 24.2 °F - N/A% 29.62 in 3.0 mi NNW 15.0 mph 27.6 mph 0.13 in Snow Light Snow
3:07 PM 35.6 °F 26.6 °F - N/A% 29.62 in 4.0 mi NW 13.8 mph 27.6 mph 0.01 in   Overcast
3:54 PM 35.1 °F 26.4 °F - N/A% 29.69 in 5.0 mi NNW 12.7 mph 39.1 mph 0.03 in   Overcast
4:54 PM 35.1 °F 25.2 °F - N/A% 29.75 in 5.0 mi NNW 16.1 mph 38.0 mph 0.04 in   Overcast
5:54 PM 36.0 °F 26.3 °F - N/A% 29.83 in 6.0 mi NNW 16.1 mph 31.1 mph 0.03 in Rain Light Rain
6:54 PM 37.0 °F 29.3 °F - N/A% 29.90 in 10.0 mi NNW 11.5 mph 23.0 mph 0.04 in   Overcast
7:01 PM 37.4 °F 30.3 °F - N/A% 29.90 in 10.0 mi NNW 10.4 mph 23.0 mph N/A   Overcast
7:54 PM 37.0 °F 31.0 °F - N/A% 29.93 in 10.0 mi NNW 8.1 mph 17.3 mph N/A   Overcast
8:19 PM 37.4 °F 32.8 °F - N/A% 29.93 in 10.0 mi Variable 5.8 mph - N/A   Overcast
8:54 PM 37.0 °F 30.4 °F - N/A% 29.95 in 10.0 mi NNW 9.2 mph - N/A   Overcast
9:54 PM 37.0 °F 31.6 °F - N/A% 29.96 in 10.0 mi NNW 6.9 mph - N/A   Scattered Clouds
10:54 PM 37.0 °F 31.6 °F - N/A% 29.98 in 10.0 mi NW 6.9 mph - N/A   Clear
11:54 PM 37.9 °F 32.7 °F - N/A% 29.99 in 10.0 mi NW 6.9 mph - N/A   Clear